www.pogodaiklimat.ru

Погода и климат >> Архив погоды >> Австралия >> Квинсленд >> Нормантон


ПОГОДА в Нормантоне

  • Прогноз погоды в Нормантоне
  • Монитор погоды в Нормантоне

АРХИВ ПОГОДЫ в Нормантоне

Время (UTC), дата Ветер
(напр.,м/с)
 
Видим.   Явления Облачность Т
(С)
Тd
(С)
f
(%)
Тe
(С)
Тes
(С)
Комфортность P
(гПа)
Po
(гПа)
Тmin
(С)
Tmax
(С)
R
(мм)
R24
(мм)
S
(см)
23 15.04 В 4 н/о 1/0 2000 м
[]
+28.2 +16.5 49 +32 +35 душно 1015.4 1013.2
02 16.04 ЮВ 5 н/о н/о +32.2 +13.9 33 +34 +34 душно 1013.8 1011.6 +23.5
05 16.04 ЮВ 4 н/о н/о +33.0 +12.6 29 +33 +33 жарко 1011.3 1009.2
08 16.04 ЮВ 2 н/о н/о +31.8 +12.6 31 +32 +32 жарко 1011.6 1009.5
11 16.04 СЗ 2 н/о 8/0
[]
+28.3 +19.0 57 +34 +34 очень
душно
1013.8 1011.6
14 16.04 ЮЗ 3 н/о н/о +24.8 +19.0 70 +30 +30 душно 1013.5 1011.3 +34.4
17 16.04 ЮВ 2 н/о 9/0
[]
+24.7 +15.3 56 +28 +28 душно 1012.9 1010.8
20 16.04 В 2 н/о н/о +22.7 +16.3 67 +27 +27 душно 1013.5 1011.3
23 16.04 СВ 4 н/о н/о +27.2 +18.8 60 +32 +32 очень
душно
1015.6 1013.4
02 17.04 В 4 н/о н/о +31.3 +16.9 42 +35 +35 очень
душно
1014.2 1012.0 +22.6
05 17.04 ЮВ 4 н/о н/о +33.9 +13.4 29 +35 +35 очень
жарко
1011.5 1009.4
08 17.04 ЮВ 3 н/о 1/0 2000 м
[]
+32.2 +12.9 31 +33 +33 жарко 1011.6 1009.5
11 17.04 З 3 н/о н/о +27.0 +20.3 67 +33 +33 очень
душно
1014.0 1011.8
14 17.04 ЮЗ 3 н/о 1/0
[]
+25.3 +20.8 76 +32 +32 очень
душно
1014.0 1011.8 +34.6
17 17.04 ЮВ 3 н/о 1/0
[]
+24.7 +15.1 55 +28 +28 душно 1013.0 1010.9
20 17.04 В 2 н/о н/о +24.2 +17.2 65 +28 +28 душно 1014.2 1012.0
23 17.04 В 4 н/о н/о +27.4 +17.3 54 +31 +31 душно 1015.8 1013.6
02 18.04 В 5 н/о н/о +31.3 +14.0 35 +33 +33 жарко 1014.8 1012.6 +23.2
05 18.04 ЮВ 3 н/о 1/0 2000 м
[]
+33.0 +13.1 30 +34 +43 очень
жарко
1011.9 1009.8
08 18.04 Ю 4 н/о 1/0
[]
+32.1 +10.8 27 +32 +32 жарко 1012.4 1010.3
11 18.04 Ю 2 н/о н/о +27.9 +11.9 37 +29 +29 жарко 1014.4 1012.2
14 18.04 Ю 3 н/о н/о +25.3 +12.2 44 +27 +27 жарко 1014.2 1012.0 +34.3
17 18.04 ЮВ 3 н/о н/о +24.7 +13.6 50 +27 +27 жарко 1013.6 1011.4
20 18.04 ЮВ 2 н/о н/о +22.0 +14.9 64 +25 +25 комфорт 1014.5 1012.3
23 18.04 В 4 н/о н/о +26.7 +16.0 52 +30 +30 душно 1016.2 1014.0
02 19.04 ЮВ 4 н/о н/о +31.8 +15.3 37 +34 +34 душно 1014.8 1012.6 +21.7
05 19.04 ЮВ 5 н/о н/о +33.0 +13.6 31 +34 +34 очень
жарко
1011.6 1009.5
08 19.04 ЮВ 3 н/о н/о +31.9 +13.6 33 +33 +33 жарко 1011.4 1009.3
11 19.04 ЮВ 3 н/о н/о +28.6 +15.2 44 +31 +31 жарко 1012.8 1010.7
14 19.04 В 2 н/о 5/0 2000 м
[]
+26.8 +15.5 50 +30 +30 душно 1012.7 1010.6 +33.8
17 19.04 В 2 н/о н/о +25.5 +15.2 53 +28 +28 жарко 1011.9 1009.8
20 19.04 ЮВ 2 н/о н/о +23.3 +15.6 62 +28 +28 душно 1012.9 1010.8
23 19.04 ЮВ 3 н/о н/о +27.5 +15.8 49 +31 +31 душно 1014.4 1012.2
02 20.04 В 3 н/о н/о +31.9 +15.4 37 +34 +34 душно 1012.7 1010.6 +22.6
05 20.04 ЮВ 4 н/о н/о +33.9 +14.4 31 +35 +35 очень
жарко
1010.0 1007.9
08 20.04 ЮВ 3 н/о н/о +32.5 +12.7 30 +33 +33 жарко 1009.7 1007.6
11 20.04 Ю 3 н/о 5/0
[]
+28.9 +13.9 40 +31 +31 жарко 1011.6 1009.5
14 20.04 Ю 3 н/о н/о +26.5 +12.9 43 +28 +28 жарко 1011.4 1009.3 +34.7
17 20.04 Ю 5 н/о н/о +25.0 +12.2 45 +27 +27 жарко 1010.1 1008.0
20 20.04 Ю 4 н/о н/о +23.3 +13.2 53 +26 +26 жарко 1011.3 1009.2
23 20.04 В 4 н/о н/о +27.2 +16.2 51 +31 +31 душно 1013.0 1010.9
02 21.04 В 4 н/о н/о +32.1 +14.3 34 +34 +34 душно 1011.9 1009.8 +22.8
05 21.04 В 3 н/о н/о +34.3 +13.2 28 +35 +35 очень
жарко
1009.2 1007.1
08 21.04 ЮВ 1 н/о 3/0
[]
+33.5 +13.0 29 +34 +34 очень
жарко
1009.4 1007.3
11 21.04 З 4 н/о 6/0
[]
+27.8 +20.6 65 +35 +35 очень
душно
1011.8 1009.7
14 21.04 ЮЗ 3 н/о н/о +25.4 +20.9 76 +32 +32 очень
душно
1011.7 1009.6 +35.6
17 21.04 Ю 3 н/о 6/0
[]
+24.7 +16.7 61 +28 +28 душно 1010.2 1008.1
20 21.04 ЮВ 4 н/о 5/0
[]
+25.6 +13.5 47 +28 +28 жарко 1010.7 1008.6
23 21.04 СВ 4 н/о н/о +28.0 +19.5 60 +34 +34 очень
душно
1012.5 1010.4
02 22.04 В 3 н/о н/о +33.6 +18.1 40 +38 +38 очень
душно
1011.3 1009.2 +24.2
05 22.04 В 3 н/о 1/0
[]
+34.6 +13.4 28 +35 +44 очень
жарко
1009.2 1007.1
08 22.04 СЗ 5 н/о н/о +31.1 +20.7 54 +38 +38 очень
душно
1010.3 1008.2
11 22.04 З 2 н/о н/о +27.6 +22.3 73 +36 +36 очень
душно
1012.2 1010.1
14 22.04 З 2 н/о н/о +26.3 +21.9 77 +34 +34 очень
душно
1012.3 1010.2 +36.4
17 22.04 ЮВ 2 н/о н/о +24.5 +20.0 76 +30 +30 очень
душно
1011.3 1009.2
20 22.04 Ю 4 н/о н/о +24.7 +16.7 61 +28 +28 душно 1011.5 1009.4

 

Местоположение метеостанции Нормантон (Квинсленд, Австралия): широта -17.68 долгота 141.07 высота над уровнем моря 19 м.

В архиве по умолчанию представлена погода в Нормантоне за последнюю неделю. Архивные данные за месяц целиком и за предыдущие месяцы, начиная с января 2011 года, Вы можете получить, выбрав интересующий диапазон дат из раскрывающегося списка и нажав кнопку "Ввод!".


*Определитесь, кто Вы:
робот инопланетянин человек

Внимание! Время в таблицах - всемирное. Для получения местного времени необходимо прибавить поправку, которая равна 10 ч.

Смотрите также архив погоды в соседних городах и на ближайших метеорологических станциях:

Погода в Беркетауне (Квинсленд, Австралия) (163 км)
Погода на Острове Морнингтон (Квинсленд, Австралия) (232 км)
Погода в Кованьяме (Квинсленд, Австралия) (255 км)
Погода в Джорджтауне (Квинсленд, Австралия) (269 км)
Погода на Руднике Century Mine (Квинсленд, Австралия) (277 км)
Погода на Озере Джулиус (Квинсленд, Австралия) (306 км)
Погода в Клонкарри (Квинсленд, Австралия) (338 км)
Погода в Джулия Крик (Квинсленд, Австралия) (340 км)
Погода в Палмервилле (Квинсленд, Австралия) (370 км)
Погода в Нью Мэй Даун (Квинсленд, Австралия) (371 км)

Пояснения к столбцам:

Ветер - указаны скорость ветра в м/с - средняя за 10 мин, порывы в срок и между сроками (в фигурных скобках) и направление, откуда дует ветер: С - северный, СВ - северо-восточный, В - восточный, ЮВ - юго-восточный, Ю - южный, ЮЗ - юго-западный, З - западный, СЗ - северо-западный.
Видимость - горизонтальная дальность видимости в метрах или километрах. При видимости от 1 до 10 км при отсутствии осадков обычно наблюдается дымка, при ухудшении видимости до 1 км и менее - туман. В сухую погоду видимость может ухудшаться дымом, пылью или мглою.
Явления - указаны атмосферные явления, наблюдавшиеся в срок или в последний час перед сроком; фигурными скобками обозначены явления, наблюдавшиеся между сроками (за 1-3 часа до срока); квадратными скобками обозначены град или гололедные отложения с указанием их диаметра в мм.
Облачность - указаны через наклонную черту общая и нижняя облачность в баллах и высота нижней границы облаков в метрах; квадратными скобками обозначены формы облаков: Ci - перистые, Cs - перисто-слоистые, Cc - перисто-кучевые, Ac - высококучевые, As - высокослоистые, Sc - слоисто-кучевые, Ns - слоисто-дождевые, Cu - кучевые, Cb - кучево-дождевые. Подробнее классификацию облаков см. в Атласе облаков (PDF).
T - Температура воздуха - температура, измеренная на высоте 2 м над землей.
Td - Температура точки росы - температура, при понижении до которой содержащийся в воздухе водяной пар достигнет насыщения.
f - Относительная влажность воздуха - влажноcть воздуха, измеренная на высоте 2 м над землей.
Te - Эффективная температура - температура, которую ощущает одетый по сезону человек в тени. Характеристика душности погоды. При расчете учитывается влияние влажности воздуха и скорости ветра на теплоощущения человека.
Tes - Эффективная температура на солнце - температура, которую ощущает человек, с поправкой на солнечный нагрев. Характеристика знойности погоды. Зависит от высоты солнца над горизонтом, облачности и скорости ветра. Ночью, в пасмурную погоду, а также при ветре 12 м/с и более поправка равна нулю.
P - Атмосферное давление - приведенное к уровню моря атмосферное давление.
Po - Атмосферное давление - измеренное на уровне метеостанции атмосферное давление.
Tmin - Минимальная температура - минимум температуры воздуха на высоте 2 м над землей.
Tmax - Максимальная температура - максимум температуры воздуха на высоте 2 м над землей.
R - Количество осадков - Количество выпавших осадков за период времени, мм. При наведении курсора мыши на число - период времени, за который выпало указанное количество осадков.
R24 - Количество осадков - Количество выпавших осадков за 24 часа, мм.
S - Снежный покров - Высота снежного покрова, см. При наведении курсора мыши на число - состояние снежного покрова и степень покрытия местности в баллах.